Cloud_Cover
100 100 100 100 100 100 100 100 100 100 100 100 100 100 100 100 100 100 100 100 100 100 100 100 100 100 100 100 100 100 100 100 100 100 100 100 100 100 100 100 61 74 66 87
100 82 100 100 100 100 100 100 100 100 100 100 100 100 100 100 100 100 100 100 100 83 87 91 42 54 100 100 100 100 100 100 100 62 58 100 100 100 100 100 100 92 71 59
100 100 92 100 100 100 100 100 100 100 100 100 100 100 100 100 100 97 100 94 45 65 5 5 5 52 89 48 86 100 100 100 100 100 100 100 100 100 100 100 100 100 94 100
100 100 100 100 100 100 100 100 100 100 100 100 100 100 100 100 96 25 6 25 7 26 67 5 5 5 45 44 94 99 96 100 100 100 100 100 100 100 100 100 100 100 100 100
100 100 100 100 100 100 100 100 100 100 100 100 100 100 100 76 67 99 98 86 54 65 6 59 100 100 58 89 94 95 100 100 100 100 100 100 100 100 100 100 100 100 100 100
100 100 100 100 100 100 100 100 100 100 100 100 100 100 100 100 100 100 100 100 100 100 100 96 100 100 45 5 5 14 44 85 100 100 100 100 100 100 100 100 100 100 100 100
100 100 100 100 100 99 100 100 100 100 100 100 100 100 100 100 100 100 100 100 100 100 100 100 98 63 19 18 6 5 5 5 8 19 83 85 100 100 100 100 100 100 100 100
100 100 100 100 100 96 98 100 100 100 100 100 100 100 100 100 100 100 100 100 100 100 100 100 100 100 37 7 5 5 5 5 5 6 5 5 5 5 11 49 86 99 100 100
100 100 100 100 46 88 100 100 100 100 100 100 100 100 100 100 96 74 100 78 39 79 79 71 54 21 5 5 5 5 5 5 4 1 4 3 2 4 4 1 3 4 30 59
100 100 100 100 100 100 100 100 100 100 100 100 100 100 100 100 99 94 92 25 5 5 5 5 5 5 5 5 5 7 5 5 4 1 1 0 0 0 0 3 3 2 25 49
100 100 100 100 100 100 100 99 99 98 100 100 100 100 100 100 100 100 22 5 5 5 5 5 5 2 5 5 5 5 5 3 1 0 0 0 64 94 98 78 50 45 48 58
100 100 100 100 91 65 94 80 100 100 100 100 100 100 100 70 81 18 7 5 5 5 5 3 3 0 0 3 0 0 0 0 1 2 1 3 43 75 100 100 100 100 100 100
100 100 100 100 100 100 100 100 100 100 100 100 92 79 100 100 96 47 32 9 12 84 100 45 32 5 5 2 0 5 5 5 5 5 5 8 55 96 100 100 100 100 100 100
100 100 100 100 100 100 100 100 100 100 71 94 100 100 99 99 21 13 100 83 91 100 100 87 5 5 17 52 13 11 38 39 6 5 5 4 4 28 100 100 100 100 100 100
100 100 100 100 100 100 100 100 100 100 94 97 97 94 5 67 100 100 100 100 100 100 100 100 17 5 5 100 54 86 5 5 1 4 0 60 85 100 100 100 100 100 100 100
100 100 100 100 100 100 100 100 100 99 100 100 97 38 80 60 83 82 90 100 100 57 74 100 65 5 5 58 5 5 5 5 5 93 91 100 100 100 100 100 100 100 100 100
100 100 100 100 100 100 100 100 100 100 100 41 61 100 99 54 34 37 57 9 7 84 66 94 82 15 8 32 5 5 40 98 100 100 98 99 100 100 100 100 100 100 100 100
100 100 100 100 100 97 100 100 92 94 100 98 91 99 97 99 100 100 14 7 5 48 21 31 92 12 83 5 35 84 100 94 55 100 98 96 100 100 100 100 100 100 100 100
100 100 100 100 100 100 90 87 89 85 98 86 100 100 100 100 100 86 39 97 22 5 31 94 67 100 94 72 99 100 100 100 78 73 100 100 100 100 100 100 100 100 100 100
100 100 90 95 68 51 20 91 99 88 99 100 100 100 100 100 100 46 94 100 84 3 8 45 100 100 100 100 100 100 100 100 100 100 100 100 100 100 100 100 100 100 100 100
100 99 78 99 100 31 86 97 98 99 100 100 100 100 100 100 90 29 41 100 98 2 6 11 49 99 100 92 73 100 100 100 100 100 100 100 100 100 100 100 100 100 100 100
93 97 100 99 100 82 46 96 98 100 100 100 100 100 100 100 100 56 100 100 100 12 5 32 89 72 85 35 98 100 100 100 100 100 100 100 100 100 100 100 100 100 100 100
67 54 55 24 48 31 45 100 85 95 100 100 100 100 100 100 44 10 98 100 100 100 45 5 5 79 89 97 100 100 100 100 100 100 100 100 97 74 100 100 100 100 75 95
93 91 68 52 62 50 72 64 94 100 100 100 100 100 100 87 5 5 8 100 100 100 64 62 71 100 79 100 100 100 100 100 100 75 78 84 100 99 100 93 87 73 57 67
96 99 86 88 14 66 81 100 91 100 94 100 100 83 69 44 5 5 10 100 100 100 100 55 96 97 100 100 100 100 100 81 76 60 77 42 54 16 11 8 5 5 5 5
88 100 99 91 31 43 13 76 99 79 54 67 87 77 48 43 10 5 5 79 100 100 100 100 64 100 98 100 100 99 94 99 100 100 98 46 6 5 6 5 5 5 5 5